This demonstration page uses our WeatherBlox Daily Observations layout. Learn more.

39.29038, -76.61219

Hourly Observations for May 14, 2019

Temp ( °F °C ) Dew Point ( °F °C ) Humidity (%) Winds ( mph kmh ) Pressure ( in mb ) Visibility ( mi km ) Precip ( " mm )
12:54 am 00:54 undefined 53 11.7 49 9.4 86 86 undefined N/A 29.84 1011 N/A 0 0
1:54 am 01:54 undefined 53 11.7 49 9.4 86 86 undefined N/A 29.83 1010 N/A 0 0
2:54 am 02:54 undefined 53 11.7 49 9.4 86 86 undefined N/A 29.81 1010 N/A 0 0
3:54 am 03:54 undefined 52 11.1 49 9.4 89 89 undefined N/A 29.8 1009 N/A 0 0
4:54 am 04:54 undefined 51 10.6 47 8.3 86 86 undefined N/A 29.81 1009 N/A 0 0
5:54 am 05:54 undefined 50 10 47 8.3 89 89 undefined N/A 29.82 1010 N/A 0 0
6:54 am 06:54 undefined 51 10.6 47 8.3 86 86 undefined N/A 29.85 1011 N/A 0 0
7:54 am 07:54 undefined 52 11.1 45 7.2 77 77 undefined N/A 29.88 1012 N/A 0 0
8:54 am 08:54 undefined 53 11.7 44 6.7 72 72 undefined N/A 29.88 1012 N/A 0 0
9:54 am 09:54 undefined 55 12.8 44 6.7 67 67 undefined N/A 29.88 1012 N/A 0 0
10:54 am 10:54 undefined 58 14.4 40 4.4 51 51 undefined N/A 29.89 1012 N/A 0 0
11:54 am 11:54 undefined 58 14.4 39 3.9 50 50 undefined N/A 29.88 1012 N/A 0 0
12:54 pm 12:54 undefined 58 14.4 38 3.3 48 48 undefined N/A 29.86 1011 N/A 0 0
1:54 pm 13:54 undefined 59 15 39 3.9 48 48 undefined N/A 29.87 1011 N/A 0 0
2:54 pm 14:54 undefined 58 14.4 38 3.3 48 48 undefined N/A 29.85 1011 N/A 0 0
3:54 pm 15:54 undefined 60 15.6 39 3.9 46 46 undefined N/A 29.85 1011 N/A 0 0
4:54 pm 16:54 undefined 59 15 39 3.9 48 48 undefined N/A 29.83 1010 N/A 0 0
5:54 pm 17:54 undefined 59 15 40 4.4 49 49 undefined N/A 29.85 1011 N/A 0 0
6:54 pm 18:54 undefined 57 13.9 44 6.7 62 62 undefined N/A 29.85 1011 N/A 0 0
7:54 pm 19:54 undefined 57 13.9 43 6.1 60 60 undefined N/A 29.88 1012 N/A 0 0
8:54 pm 20:54 undefined 56 13.3 42 5.6 60 60 undefined N/A 29.9 1012 N/A 0 0
9:54 pm 21:54 undefined 55 12.8 43 6.1 64 64 undefined N/A 29.91 1013 N/A 0 0
10:54 pm 22:54 undefined 54 12.2 43 6.1 67 67 undefined N/A 29.92 1013 N/A 0 0
11:54 pm 23:54 undefined 52 11.1 43 6.1 72 72 undefined N/A 29.93 1014 N/A 0 0

Powered by AerisWeather